Flag for Germany Weather past 2 weeks in Haltern am See, North Rhine-Westphalia, Germany

Now
57 °F

Clear.


Feels Like: 56 °F
Forecast: 50 / 74 °F
Wind: 6 mph from East

Location: Dortmund / Wickede


UV Index: 3 (Moderate)

Visibility: 10 mi


Pressure: 30.01 "Hg

Humidity: 77%

Dew point: 50 °F

Location of Haltern am SeeLocation

Historic Weather in Haltern am See

°F

Haltern am See temperature yesterday

Maximum temperature yesterday: 70 °F (at 12:50 PM)
Minimum temperature yesterday: 46 °F (at 6:20 AM)
Average temperature yesterday: 60 °F

Past Weeks' High & Low Weather Summary

 TemperatureHumidityPressure
High70 °F (Apr 24, 12:50 PM)94% (Apr 21, 8:20 PM)30.45 "Hg (Apr 21, 8:20 PM)
Low30 °F (Apr 16, 5:20 AM)29% (Apr 17, 3:50 PM)29.65 "Hg (Apr 21, 2:50 PM)
Average52 °F66%30.04 "Hg
* Reported Apr 9 9:20 PM — Apr 24 9:50 PM, Haltern am See, Weather by CustomWeather, © 2014

Note: Actual official high and low records may vary slightly from our data, if they occured in-between our weather recording intervals... More about our weather records

Advertising

Historic Weather Conditions — Data for Previous 24 hours

 ConditionsComfort  
Time TempWeatherWind HumidityBarometerVisibility
9:50 PM
Apr 24
57 °FClear.6 mph77%30.01 "Hg10 mi
9:20 PM57 °FSunny.6 mph77%30.01 "Hg10 mi
8:50 PM59 °FSunny.3 mph77%30.01 "Hg10 mi
8:20 PM59 °FSunny.2 mph77%30.01 "Hg10 mi
7:50 PM61 °FSunny.2 mph77%30.01 "Hg10 mi
7:20 PM59 °FSunny.5 mph77%30.01 "Hg10 mi
6:50 PM63 °FSunny.2 mph73%30.01 "Hg10 mi
6:20 PM64 °FSunny.6 mph64%30.01 "Hg10 mi
5:50 PM66 °FSunny.1 mph60%30.04 "Hg10 mi
5:20 PM63 °FSunny.3 mph73%30.04 "Hg10 mi
4:50 PM59 °FScattered showers. Clear.5 mph82%30.04 "HgN/A
4:20 PM61 °FThundershowers. Partly sunny.6 mph72%30.07 "HgN/A
3:50 PM59 °FThundershowers. Broken clouds.8 mph72%30.07 "HgN/A
3:20 PM59 °FThunderstorms. Scattered clouds.20 mph68%30.07 "HgN/A
2:50 PM66 °FThundershowers. Partly sunny.5 mph52%30.07 "HgN/A
2:20 PM66 °FSunny.6 mph56%30.07 "Hg10 mi
1:50 PM68 °FSunny.3 mph53%30.07 "Hg10 mi
1:20 PM68 °FSunny.3 mph49%30.07 "Hg10 mi
12:50 PM70 °FSunny.2 mph46%30.09 "Hg10 mi
12:20 PM68 °FSunny.3 mph49%30.09 "Hg10 mi
11:50 AM66 °FSunny.3 mph56%30.09 "Hg10 mi
11:20 AM64 °FSunny.2 mph56%30.12 "Hg10 mi
10:50 AM64 °FSunny.1 mph60%30.12 "Hg10 mi
10:20 AM63 °FSunny.1 mph64%30.12 "Hg10 mi
9:50 AM59 °FSunny.2 mph68%30.12 "Hg10 mi
9:20 AM55 °FSunny.5 mph77%30.12 "Hg10 mi
8:50 AM55 °FPassing clouds.5 mph77%30.12 "HgN/A
8:20 AM54 °FPassing clouds.5 mph82%30.09 "HgN/A
7:50 AM50 °FPassing clouds.5 mph88%30.09 "HgN/A
7:20 AM50 °FSunny.2 mph88%30.09 "Hg10 mi
6:50 AM48 °FClear.3 mph87%30.09 "Hg10 mi
6:20 AM46 °FPassing clouds.5 mph87%30.09 "HgN/A
5:50 AM48 °FClear.6 mph87%30.09 "Hg10 mi
5:20 AM48 °FClear.10 mph87%30.09 "Hg10 mi
Weather by CustomWeather, © 2014

See weather overview